Regional Weather Roundup
Issued by NWS Upton, NY

Current Version | Previous Version | Graphics & Text | Print | Product List | Glossary Off
Versions: 1 2 3 4 5 6 7 8 9 10 11 12 13 14 15 16 17 18 19 20 21 22 23 24 25 26 27

000
ASUS41 KOKX 272208
RWROKX

REGIONAL WEATHER ROUNDUP
NATIONAL WEATHER SERVICE NEW YORK NY
600 PM EDT MON MAR 27 2017

NOTE: "FAIR" INDICATES FEW OR NO CLOUDS BELOW 12,000 FEET WITH NO
SIGNIFICANT WEATHER AND/OR OBSTRUCTIONS TO VISIBILITY.

NYZ071-072-176-178-NJZ106-104-272300-
NEW YORK CITY METRO AREA

CITY           SKY/WX    TMP DP  RH WIND       PRES   REMARKS
Central Park   CLOUDY    51  44  77 NE6       30.01F
Wall St Helipt CLOUDY    53  46  77 S5        29.99S
LaGuardia APRT CLOUDY    48  43  82 NE8       29.98F
Kennedy INTL   CLOUDY    55  50  83 SW8       29.99F
Breezy Point     N/A     48 N/A N/A S2          N/A
Newark/Liberty PTSUNNY   56  48  74 W9        29.98F
Teterboro      MOSUNNY   54  47  77 CALM      29.97F
$$

NYZ177-179-078>081-272300-
LONG ISLAND NEW YORK

CITY           SKY/WX    TMP DP  RH WIND       PRES   REMARKS
Jones Beach      N/A     46 N/A N/A S3          N/A
Matinecock PT  NOT AVBL
Farmingdale    CLOUDY    53  47  79 NE5       29.99S
MacArthur/ISP  CLOUDY    51  46  83 CALM      29.99S
Shirley        CLOUDY    50  46  86 CALM      30.00S
Westhampton    CLOUDY    48  44  86 CALM      30.01F
East Hampton   CLOUDY    49  46  90 CALM      29.99F
Montauk          N/A     46  45  96 SE3       30.00
$$

NYZ052-065-067-272300-
HUDSON VALLEY

CITY           SKY/WX    TMP DP  RH WIND       PRES   REMARKS
White Plains   CLOUDY    48  44  86 CALM      29.98S
Newburgh       MOSUNNY   46  45  93 CALM      29.98F
Montgomery     SUNNY     48  42  80 SW5       29.96F
Poughkeepsie   SUNNY     47  41  80 W6        29.97S
Albany         CLOUDY    46  39  76 S6        29.98S
$$

NJZ001-105-106-008-010-013-015-019>022-104-272300-
NEW JERSEY

CITY           SKY/WX    TMP DP  RH WIND       PRES   REMARKS
Newark/Liberty PTSUNNY   56  48  74 W9        29.98F
Teterboro      MOSUNNY   54  47  77 CALM      29.97F
Caldwell       CLOUDY    54  47  77 CALM      29.98F
Somerville     PTSUNNY   55  49  80 CALM      29.96S
Linden           N/A     56  48  75 CALM      29.98F
Sussex         CLOUDY    50  46  86 NE3       29.97F
Andover          N/A     55  47  74 CALM      29.97S
Trenton        CLOUDY    56  51  84 S5        29.97F HAZE
Millville      SUNNY     69  58  67 VRB3      29.95F
Atlantic City  PTSUNNY   65  54  67 SE7       29.96F
Wrightstown    SUNNY     60  53  77 NW5       29.95F
Toms River     PTSUNNY   63  56  78 NW6       29.97F
Belmar         CLOUDY    58  53  84 W3        29.99F
$$

PAZ047>061-062-071-272300-
EASTERN PENNSYLVANIA

CITY           SKY/WX    TMP DP  RH WIND       PRES   REMARKS
Philadelphia   PTSUNNY   61  53  75 CALM      29.97F
Allentown      CLOUDY    57  48  72 S5        29.97F
Scranton       SUNNY     57  48  72 W3        29.94F
$$

CTZ002-004>006-009-010-012-RIZ004-006-007-MAZ004-011-015-272300-
SOUTHERN NEW ENGLAND
 IN CT

CITY           SKY/WX    TMP DP  RH WIND       PRES   REMARKS
Bradley INTL   CLOUDY    42  38  85 N3        30.01S
Hartford       CLOUDY    42  38  85 N5        30.01F
Danbury        CLOUDY    47  44  90 CALM      29.99F
Wtrbury/Oxford CLOUDY    45  39  81 CALM      30.00S FOG
Bridgeport     CLOUDY    46  43  89 CALM      29.99S FOG
Meriden        CLOUDY    43  39  86 NE5       30.00F
New Haven      CLOUDY    44  41  89 N7        29.99S
Chester        NOT AVBL
Groton         CLOUDY    47  45  93 W3        29.98S
Wilimantic     LGT RAIN  46  44  93 CALM      29.99F

 IN RI

CITY           SKY/WX    TMP DP  RH WIND       PRES   REMARKS
Providence     CLOUDY    45  42  89 N10       29.99S FOG
Block Island   FOG       45  44  97 SW9       29.99F VSB 1/4
Westerly       CLOUDY    49  49 100 W5        30.00R FOG
 IN MA

CITY           SKY/WX    TMP DP  RH WIND       PRES   REMARKS
Boston         CLOUDY    44  42  93 N6        30.00S
Worcester      FOG       38  36  92 NE3       29.98S VSB<1/4
Westfield      CLOUDY    41  38  89 NE3       30.00S
Provincetown   LGT RAIN  42  42 100 NW3       29.98F
Nantucket      CLOUDY    44  43  96 S9        30.00S FOG
$$

ANZ330-335-338-340-345-350-353-355-272300-
COASTAL MARINE OBSERVATIONS


STATION/POSITION TIME  SKY/WX   TEMP    WIND        PRES    VSBY  WAVE
                                AIR SEA DIR/SP/G                  HT/PER
                 (UTC)          (F)     (DEG/KT/KT) (MB)    (MI)  (FT/S)
NY HARB ENTRANCE 2050            46 44  140/  4/  6 1015.8          3/ 7
20 S FIRE ISLAND 2150            43 42  120/  4/  4 1015.5          4/ 7
GREAT SOUTH BAY  NOT AVBL
23 SSW MONTAUK P 2050            45 43              1016.4          3/ 7
15 E BARNEGAT LI 2130               44                N/A           4/ 7
HUDSON CANYON    2150            49 45  210/ 10/ 12 1015.9          4/ 7
KINGS POINT      2130            43 40              1015.3
EXECUTION ROCKS  NOT AVBL
CENTRAL LI SOUND 2130            40     270/  6/  6   N/A           0
EASTERN LI SOUND NOT AVBL
ROBBINS REEF     2130            53     270/  3/  4 1015.6
$$


>>>>>>>>>>>>>>>>>>>>>>>>>>>> KEY <<<<<<<<<<<<<<<<<<<<<<<<<<<
>                                                          <
>     SKY/WX - Sky Condition/Present Weather               <
>     TMP    - Temperature in Fahrenheit                   <
>     DP     - Dew Point in Fahrenheit                     <
>     RH     - Relative Humidity in Percent                <
>     WIND   - Direction (from) and Speed in MPH           <
>     PRES   - Mean Sea Level Pressure (inches of Hg)      <
>     WCI    - Wind Chill Index                            <
>     VSB    - VISIBILITY IN MILES                         <
>     HX     - HEAT INDEX                                  <
>     TC     - TEMPERATURE IN CELSIUS                      <
>     VRB    - VARIABLE WIND DIRECTION                     <
>                                                          <
>>>>>>>>>>>>>>>>>>>>>>>>>>>> KEY <<<<<<<<<<<<<<<<<<<<<<<<<<<




USA.gov is the U.S. government's official web portal to all federal, state and local government web resources and services.